Find Starlink 37626

NORAD ID: 100419 Int'l Des: 2026-192 Owner: SPXS Country: US Constellation: starlink operational

Current View

Loading 3D Globe...

About Starlink 37626

Starlink 37626 (NORAD 100419) is a starlink constellation satellite launched Aug 21, 2026 by SPXS of US. with a mass of 575.00 kg.

Upcoming Passes

Passes for default location (London). Set your location on the main map for personalized predictions.

Altitude History

Loading altitude history...

Two-Line Element Set

1 A0419U 26192R 26254.47405689 .00230072 00000-0 11908-2 0 9991
2 A0419 53.1610 349.6835 0003387 212.3953 147.6862 15.79885354 4504
Epoch: Sep 11, 2026 • Age: 11 hours

Current Status

Altitude 336.6 km
Apogee / Perigee N/A
Velocity 7.71 km/s
Sub-Earth Point 49.73°N, 137.95°E
Launch Date Aug 21, 2026
Age 21 days
Type internet

Technical Details

Classification Payload
Mass 575.00 kg
Dry Mass 530.00 kg
Total Mass 575.00 kg
Length 0.30 m
Diameter 4.10 m
Span 29.00 m
Shape Box + pan
Manufacturer SPXS
Bus Type Starlink V2MO
Phase Status In Orbit
Owner/State SPXS/US

Most Searched